Weather History for McGuire AFB, NJ

Change the Weather History Date:

Sunday, January 19, 2014

  Actual Average Record
Temperature  
Mean Temperature 30 °F -  
Max Temperature 40 °F 35 °F 52 °F (2013)
Min Temperature 20 °F 20 °F 3 °F (2003)
Degree Days  
Heating Degree Days 35    
Moisture  
Dew Point 16 °F    
Average Humidity 56    
Maximum Humidity 69    
Minimum Humidity 43    
Precipitation  
Precipitation 0.00 in - - ()
Sea Level Pressure  
Sea Level Pressure 29.79 in    
Wind  
Wind Speed 9 mph (SW)    
Max Wind Speed 18 mph    
Max Gust Speed 26 mph    
Visibility 10 miles    
Events      
Averages and records for this station are not official NWS values.
T = Trace of Precipitation, MM = Missing Value Source: NWS Daily Summary

Daily Weather History Graph

Daily Weather History Graph

Search for Another Location

Airport:

Trip Planner

Search our weather history database for the weather conditions in past years. The results will help you decide how hot, cold, wet, or windy it might be!

Date:

Astronomy

Jan. 19, 2014 Rise Set
Actual Time 7:16 AM EST 5:02 PM EST
Civil Twilight 6:47 AM EST 5:31 PM EST
Nautical Twilight 6:13 AM EST 6:04 PM EST
Astronomical Twilight 5:41 AM EST 6:37 PM EST
Moon 8:37 PM EST (1/19) 8:45 AM EST (1/19)
Length of Visible Light 10h 44m
Length of Day
9h 45m
Waning Gibbous, 89% of the Moon is Illuminated
Jan 19
Waning Gibbous
Jan 24
Last Quarter
Jan 30
New
Feb 6
First Quarter
Feb 14
Full

Hourly Weather History & Observations

Time (EST) Temp. Windchill Dew Point Humidity Pressure Visibility Wind Dir Wind Speed Gust Speed Precip Events Conditions
12:58 AM 22.3 °F 12.2 °F 9.7 °F 58% 29.90 in 10.0 mi West 9.2 mph - N/A   Clear
1:58 AM 22.1 °F 12.0 °F 9.9 °F 59% 29.89 in 10.0 mi WSW 9.2 mph - N/A   Clear
2:58 AM 21.2 °F 12.6 °F 9.7 °F 61% 29.89 in 10.0 mi West 6.9 mph - N/A   Clear
3:58 AM 21.7 °F 14.3 °F 10.4 °F 62% 29.87 in 10.0 mi WSW 5.8 mph - N/A   Mostly Cloudy
4:58 AM 22.3 °F 11.5 °F 10.4 °F 60% 29.87 in 10.0 mi WSW 10.4 mph - N/A   Overcast
5:58 AM 22.3 °F 13.9 °F 10.9 °F 62% 29.87 in 10.0 mi SW 6.9 mph - N/A   Overcast
6:58 AM 21.7 °F 12.3 °F 10.9 °F 63% 29.87 in 10.0 mi SW 8.1 mph - N/A   Mostly Cloudy
7:58 AM 20.3 °F 12.5 °F 11.7 °F 69% 29.86 in 10.0 mi SSW 5.8 mph - N/A   Clear
8:58 AM 23.7 °F 14.0 °F 11.5 °F 60% 29.86 in 10.0 mi SW 9.2 mph - N/A   Overcast
9:58 AM 27.7 °F 20.4 °F 11.1 °F 50% 29.84 in 10.0 mi SW 6.9 mph - N/A   Mostly Cloudy
10:58 AM 30.0 °F 21.1 °F 12.2 °F 48% 29.82 in 10.0 mi WSW 10.4 mph - N/A   Overcast
11:58 AM 34.3 °F 27.0 °F 14.2 °F 44% 29.77 in 10.0 mi SW 9.2 mph - N/A   Overcast
12:58 PM 37.2 °F 29.1 °F 16.7 °F 43% 29.74 in 10.0 mi SW 12.7 mph 17.3 mph N/A   Overcast
1:58 PM 39.7 °F 33.2 °F 19.0 °F 43% 29.71 in 10.0 mi WSW 10.4 mph 20.7 mph N/A   Clear
2:58 PM 40.1 °F 31.0 °F 21.2 °F 47% 29.72 in 10.0 mi WSW 18.4 mph 24.2 mph N/A   Scattered Clouds
3:58 PM 40.6 °F 32.0 °F 21.2 °F 46% 29.71 in 10.0 mi WSW 17.3 mph 26.5 mph N/A   Clear
4:58 PM 38.7 °F 31.4 °F 20.5 °F 48% 29.72 in 10.0 mi SW 11.5 mph 20.7 mph N/A   Clear
5:58 PM 36.3 °F 30.1 °F 21.2 °F 54% 29.73 in 10.0 mi SW 8.1 mph - N/A   Clear
6:58 PM 35.6 °F 28.6 °F 20.8 °F 55% 29.73 in 10.0 mi SW 9.2 mph - N/A   Partly Cloudy
7:58 PM 33.6 °F 26.8 °F 20.5 °F 59% 29.73 in 10.0 mi SSW 8.1 mph - N/A   Clear
8:58 PM 34.3 °F 25.5 °F 21.2 °F 59% 29.72 in 10.0 mi SW 12.7 mph - N/A   Clear
9:58 PM 35.6 °F 27.5 °F 21.9 °F 58% 29.72 in 10.0 mi SSW 11.5 mph - N/A   Clear
10:58 PM 33.8 °F 27.7 °F 21.7 °F 61% 29.71 in 10.0 mi SW 6.9 mph - N/A   Clear
11:58 PM 30.2 °F 24.3 °F 21.2 °F 69% 29.70 in 10.0 mi South 5.8 mph - N/A   Clear